Year,Month,Day,Hour,Minute,Value (Times are PST for barometer in hPa)
2021,04,15,00,00,964.60
2021,04,15,00,01,964.47
2021,04,15,00,02,964.43
2021,04,15,00,03,964.36
2021,04,15,00,04,964.40
2021,04,15,00,05,964.48
2021,04,15,00,06,964.56
2021,04,15,00,07,964.63
2021,04,15,00,08,964.59
2021,04,15,00,09,964.58
2021,04,15,00,10,964.57
2021,04,15,00,11,964.48
2021,04,15,00,12,964.37
2021,04,15,00,13,964.16
2021,04,15,00,14,963.98
2021,04,15,00,15,963.95
2021,04,15,00,16,963.93
2021,04,15,00,17,964.01
2021,04,15,00,18,964.05
2021,04,15,00,19,964.02
2021,04,15,00,20,964.03
2021,04,15,00,21,963.93
2021,04,15,00,22,963.86
2021,04,15,00,23,963.95
2021,04,15,00,24,963.97
2021,04,15,00,25,963.97
2021,04,15,00,26,963.98
2021,04,15,00,27,963.95
2021,04,15,00,28,963.94
2021,04,15,00,29,963.86
2021,04,15,00,30,963.78
2021,04,15,00,31,963.80
2021,04,15,00,32,964.07
2021,04,15,00,33,964.25
2021,04,15,00,34,964.13
2021,04,15,00,35,964.00
2021,04,15,00,36,964.08
2021,04,15,00,37,964.10
2021,04,15,00,38,964.04
2021,04,15,00,39,963.98
2021,04,15,00,40,963.64
2021,04,15,00,41,963.27
2021,04,15,00,42,962.87
2021,04,15,00,43,962.60
2021,04,15,00,44,962.51
2021,04,15,00,45,962.48
2021,04,15,00,46,962.58
2021,04,15,00,47,962.69
2021,04,15,00,48,962.59
2021,04,15,00,49,962.45
2021,04,15,00,50,962.39
2021,04,15,00,51,962.27
2021,04,15,00,52,962.21
2021,04,15,00,53,961.33
2021,04,15,00,54,961.08
2021,04,15,00,55,961.51
2021,04,15,00,56,961.69
2021,04,15,00,57,961.51
2021,04,15,00,58,961.13
2021,04,15,00,59,960.79
2021,04,15,01,00,960.68
2021,04,15,01,01,960.55
2021,04,15,01,02,960.11
2021,04,15,01,03,959.96
2021,04,15,01,04,960.21
2021,04,15,01,05,960.19
2021,04,15,01,06,960.09
2021,04,15,01,07,960.05
2021,04,15,01,08,959.95
2021,04,15,01,09,959.74
2021,04,15,01,10,959.30
2021,04,15,01,11,958.79
2021,04,15,01,12,958.75
2021,04,15,01,13,958.73
2021,04,15,01,14,958.47
2021,04,15,01,15,958.16
2021,04,15,01,16,957.92
2021,04,15,01,17,957.83
2021,04,15,01,18,957.67
2021,04,15,01,19,957.67
2021,04,15,01,20,957.70
2021,04,15,01,21,956.43
2021,04,15,01,22,955.82
2021,04,15,01,23,955.57
2021,04,15,01,24,955.30
2021,04,15,01,25,955.02
2021,04,15,01,26,954.93
2021,04,15,01,27,953.79
2021,04,15,01,28,953.42
2021,04,15,01,29,953.50
2021,04,15,01,30,953.43
2021,04,15,01,31,953.40
2021,04,15,01,32,953.40
2021,04,15,01,33,951.16
2021,04,15,01,34,950.48
2021,04,15,01,35,950.60
2021,04,15,01,36,950.63
2021,04,15,01,37,950.63
2021,04,15,01,38,950.63
2021,04,15,01,39,950.63
2021,04,15,01,40,950.63
2021,04,15,01,41,950.63
2021,04,15,01,42,940.72
2021,04,15,01,43,936.80
2021,04,15,01,44,936.74
2021,04,15,01,45,936.74
2021,04,15,01,46,936.74
2021,04,15,01,47,932.95
2021,04,15,01,48,931.85
2021,04,15,01,49,931.89
2021,04,15,01,50,931.95
2021,04,15,01,51,931.56
2021,04,15,01,52,931.43
2021,04,15,01,53,930.91
2021,04,15,01,54,930.59
2021,04,15,01,55,930.41
2021,04,15,01,56,930.53
2021,04,15,01,57,930.26
2021,04,15,01,58,930.14
2021,04,15,01,59,930.14
2021,04,15,02,00,930.14
2021,04,15,02,01,927.63
2021,04,15,02,02,927.24
2021,04,15,02,03,927.66
2021,04,15,02,04,927.74
2021,04,15,02,05,927.74
2021,04,15,02,06,927.74
2021,04,15,02,07,924.97
2021,04,15,02,08,924.11
2021,04,15,02,09,923.56
2021,04,15,02,10,923.43
2021,04,15,02,11,922.84
2021,04,15,02,12,922.22
2021,04,15,02,13,922.16
2021,04,15,02,14,921.99
2021,04,15,02,15,921.94
2021,04,15,02,16,920.14
2021,04,15,02,17,919.27
2021,04,15,02,18,919.03
2021,04,15,02,19,919.32
2021,04,15,02,20,919.40
2021,04,15,02,21,918.42
2021,04,15,02,22,918.19
2021,04,15,02,23,918.19
2021,04,15,02,24,918.19
2021,04,15,02,25,912.98
2021,04,15,02,26,912.06
2021,04,15,02,27,910.89
2021,04,15,02,28,910.60
2021,04,15,02,29,910.60
2021,04,15,02,30,907.63
2021,04,15,02,31,906.66
2021,04,15,02,32,906.60
2021,04,15,02,33,906.60
2021,04,15,02,34,906.60
2021,04,15,02,35,906.60
2021,04,15,02,36,906.60
2021,04,15,02,37,906.60
2021,04,15,02,38,906.60
2021,04,15,02,39,906.60
2021,04,15,02,40,906.60
2021,04,15,02,41,906.60
2021,04,15,02,42,906.60
2021,04,15,02,43,906.60
2021,04,15,02,44,906.60
2021,04,15,02,45,906.60
2021,04,15,02,46,906.60
2021,04,15,02,47,906.60
2021,04,15,02,48,906.60
2021,04,15,02,49,906.60
2021,04,15,02,50,906.60
2021,04,15,02,51,906.60
2021,04,15,02,52,906.60
2021,04,15,02,53,906.60
2021,04,15,02,54,906.60
2021,04,15,02,55,906.60
2021,04,15,02,56,906.60
2021,04,15,02,57,906.60
2021,04,15,02,58,906.60
2021,04,15,02,59,906.60
2021,04,15,03,00,904.16
2021,04,15,03,01,904.05
2021,04,15,03,02,904.06
2021,04,15,03,03,904.06
2021,04,15,03,04,907.54
2021,04,15,03,05,907.72
2021,04,15,03,06,907.72
2021,04,15,03,07,907.91
2021,04,15,03,08,907.28
2021,04,15,03,09,907.25
2021,04,15,03,10,906.90
2021,04,15,03,11,906.88
2021,04,15,03,12,906.88
2021,04,15,03,13,906.88
2021,04,15,03,14,906.88
2021,04,15,03,15,906.88
2021,04,15,03,16,906.10
2021,04,15,03,17,905.84
2021,04,15,03,18,905.49
2021,04,15,03,19,905.45
2021,04,15,03,20,905.45
2021,04,15,03,21,905.45
2021,04,15,03,22,904.10
2021,04,15,03,23,904.03
2021,04,15,03,24,901.56
2021,04,15,03,25,901.56
2021,04,15,03,26,901.56
2021,04,15,03,27,901.56
2021,04,15,03,28,901.56
2021,04,15,03,29,901.56
2021,04,15,03,30,900.98
2021,04,15,03,31,900.95
2021,04,15,03,32,900.95
2021,04,15,03,33,900.95
2021,04,15,03,34,900.95
2021,04,15,03,35,900.95
2021,04,15,03,36,900.95
2021,04,15,03,37,900.95
2021,04,15,03,38,900.95
2021,04,15,03,39,900.95
2021,04,15,03,40,900.95
2021,04,15,03,41,900.95
2021,04,15,03,42,900.95
2021,04,15,03,43,900.95
2021,04,15,03,44,900.95
2021,04,15,03,45,900.95
2021,04,15,03,46,900.95
2021,04,15,10,06,914.39
2021,04,15,10,07,914.39
2021,04,15,10,08,914.39
2021,04,15,10,09,914.39
2021,04,15,10,10,913.20
2021,04,15,10,11,911.89
2021,04,15,10,12,911.89
2021,04,15,10,13,911.89
2021,04,15,10,14,911.89
2021,04,15,10,15,912.70
2021,04,15,10,16,913.58
2021,04,15,10,17,913.58
2021,04,15,10,18,913.58
2021,04,15,10,19,914.70
2021,04,15,10,20,916.31
2021,04,15,10,21,916.63
2021,04,15,10,22,916.63
2021,04,15,10,23,916.63
2021,04,15,10,24,914.70
2021,04,15,10,25,912.75
2021,04,15,10,26,912.90
2021,04,15,10,27,913.50
2021,04,15,10,28,914.16
2021,04,15,10,29,914.16
2021,04,15,10,30,914.16
2021,04,15,10,31,914.16
2021,04,15,10,32,914.29
2021,04,15,10,33,914.40
2021,04,15,10,34,914.36
2021,04,15,10,35,914.93
2021,04,15,10,36,915.44
2021,04,15,10,37,914.73
2021,04,15,10,38,914.02
2021,04,15,10,39,914.66
2021,04,15,10,40,915.13
2021,04,15,10,41,914.74
2021,04,15,10,42,914.49
2021,04,15,10,43,914.49
2021,04,15,10,44,915.67
2021,04,15,10,45,916.76
2021,04,15,10,46,916.76
2021,04,15,10,47,917.40
2021,04,15,10,48,917.98
2021,04,15,10,49,917.98
2021,04,15,10,50,917.98
2021,04,15,10,51,917.98
2021,04,15,10,52,917.98
2021,04,15,10,53,917.98
2021,04,15,10,54,917.98
2021,04,15,10,55,917.98
2021,04,15,10,56,917.98
2021,04,15,10,57,917.98
2021,04,15,10,58,917.98
2021,04,15,10,59,917.98
2021,04,15,11,00,915.06
2021,04,15,11,01,912.40
2021,04,15,11,02,912.10
2021,04,15,11,03,911.85
2021,04,15,11,04,910.07
2021,04,15,11,05,908.74
2021,04,15,11,06,908.74
2021,04,15,11,07,908.74
2021,04,15,11,08,908.74
2021,04,15,11,09,908.74
2021,04,15,11,10,908.74
2021,04,15,11,11,908.74
2021,04,15,11,12,906.42
2021,04,15,11,13,904.97
2021,04,15,11,14,905.34
2021,04,15,11,15,905.52
2021,04,15,11,16,905.52
2021,04,15,11,17,905.52
2021,04,15,11,18,905.52
2021,04,15,11,19,908.98
2021,04,15,11,20,911.46
2021,04,15,11,21,911.38
2021,04,15,11,22,912.62
2021,04,15,11,23,913.48
2021,04,15,11,24,914.09
2021,04,15,11,25,914.40
2021,04,15,11,26,914.39
2021,04,15,11,27,913.95
2021,04,15,11,28,913.65
2021,04,15,11,29,912.95
2021,04,15,11,30,912.14
2021,04,15,11,31,911.95
2021,04,15,11,32,911.95
2021,04,15,11,33,912.33
2021,04,15,11,34,912.56
2021,04,15,11,35,913.39
2021,04,15,11,36,913.78
2021,04,15,11,37,913.78
2021,04,15,11,38,913.78
2021,04,15,11,39,914.07
2021,04,15,11,40,914.22
2021,04,15,11,41,914.22
2021,04,15,11,42,917.54
2021,04,15,11,43,918.96
2021,04,15,11,44,918.34
2021,04,15,11,45,917.85
2021,04,15,11,46,917.46
2021,04,15,11,47,917.52
2021,04,15,11,48,917.54
2021,04,15,11,49,917.51
2021,04,15,11,50,916.75
2021,04,15,11,51,916.39
2021,04,15,11,52,916.46
2021,04,15,11,53,916.49
2021,04,15,11,54,914.63
2021,04,15,11,55,913.82
2021,04,15,11,56,913.82
2021,04,15,11,57,913.82
2021,04,15,11,58,913.82
2021,04,15,11,59,913.22
2021,04,15,12,00,913.00
2021,04,15,12,01,912.65
2021,04,15,12,02,912.52
2021,04,15,12,03,912.95
2021,04,15,12,04,913.14
2021,04,15,12,05,913.14
2021,04,15,12,06,913.14
2021,04,15,12,07,913.14
2021,04,15,12,08,913.14
2021,04,15,12,09,913.14
2021,04,15,12,10,913.14
2021,04,15,12,11,913.14
2021,04,15,12,12,913.14
2021,04,15,12,13,913.14
2021,04,15,12,14,913.14
2021,04,15,12,15,913.14
2021,04,15,12,16,913.14
2021,04,15,12,17,913.14
2021,04,15,12,18,913.29
2021,04,15,12,19,913.39
2021,04,15,12,20,913.15
2021,04,15,12,21,913.46
2021,04,15,12,22,914.07
2021,04,15,12,23,914.18
2021,04,15,12,24,914.16
2021,04,15,12,25,914.16
2021,04,15,12,26,914.41
2021,04,15,12,27,914.49
2021,04,15,12,28,912.79
2021,04,15,12,29,912.36
2021,04,15,12,30,913.51
2021,04,15,12,31,913.85
2021,04,15,12,32,915.35
2021,04,15,12,33,915.82
2021,04,15,12,34,916.54
2021,04,15,12,35,916.76
2021,04,15,12,36,915.51
2021,04,15,12,37,915.46
2021,04,15,12,38,915.49
2021,04,15,12,39,915.70
2021,04,15,12,40,916.16
2021,04,15,12,41,915.82
2021,04,15,12,42,915.66
2021,04,15,12,43,915.65
2021,04,15,12,44,915.65
2021,04,15,12,45,915.62
2021,04,15,12,46,915.34
2021,04,15,12,47,915.49
2021,04,15,12,48,915.98
2021,04,15,12,49,915.90
2021,04,15,12,50,915.43
2021,04,15,12,51,915.75
2021,04,15,12,52,916.14
2021,04,15,12,53,916.49
2021,04,15,12,54,916.26
2021,04,15,12,55,915.69
2021,04,15,12,56,915.61
2021,04,15,12,57,916.74
2021,04,15,12,58,916.93
2021,04,15,12,59,917.05
2021,04,15,13,00,917.29
2021,04,15,13,01,916.99
2021,04,15,13,02,916.93
2021,04,15,13,03,916.93
2021,04,15,13,04,919.57
2021,04,15,13,05,920.07
2021,04,15,13,06,920.08
2021,04,15,13,07,920.57
2021,04,15,13,08,921.09
2021,04,15,13,09,920.82
2021,04,15,13,10,920.76
2021,04,15,13,11,920.76
2021,04,15,13,12,919.62
2021,04,15,13,13,919.28
2021,04,15,13,14,919.27
2021,04,15,13,15,919.27
2021,04,15,13,16,920.12
2021,04,15,13,17,920.28
2021,04,15,13,18,920.29
2021,04,15,13,19,920.29
2021,04,15,13,20,920.29
2021,04,15,13,21,920.29
2021,04,15,13,22,920.29
2021,04,15,13,23,920.29
2021,04,15,13,24,920.29
2021,04,15,13,25,918.99
2021,04,15,13,26,918.86
2021,04,15,13,27,918.86
2021,04,15,13,28,918.50
2021,04,15,13,29,918.46
2021,04,15,13,30,919.19
2021,04,15,13,31,919.85
2021,04,15,13,32,919.91
2021,04,15,13,33,918.40
2021,04,15,13,34,918.45
2021,04,15,13,35,918.33
2021,04,15,13,36,918.32
2021,04,15,13,37,918.32
2021,04,15,13,38,916.65
2021,04,15,13,39,916.75
2021,04,15,13,40,916.76
2021,04,15,13,41,915.53
2021,04,15,13,42,915.53
2021,04,15,13,43,916.16
2021,04,15,13,44,916.19
2021,04,15,13,45,916.19
2021,04,15,13,46,915.57
2021,04,15,13,47,916.16
2021,04,15,13,48,916.19
2021,04,15,13,49,916.19
2021,04,15,13,50,920.18
2021,04,15,13,51,920.35
2021,04,15,13,52,920.01
2021,04,15,13,53,920.01
2021,04,15,13,54,919.11
2021,04,15,13,55,918.81
2021,04,15,13,56,918.90
2021,04,15,13,57,918.93
2021,04,15,13,58,918.93
2021,04,15,13,59,917.91
2021,04,15,14,00,917.34
2021,04,15,14,01,917.24
2021,04,15,14,02,917.75
2021,04,15,14,03,918.05
2021,04,15,14,04,917.85
2021,04,15,14,05,917.21
2021,04,15,14,06,917.44
2021,04,15,14,07,918.02
2021,04,15,14,08,917.91
2021,04,15,14,09,918.29
2021,04,15,14,10,918.29
2021,04,15,14,11,919.57
2021,04,15,14,12,919.48
2021,04,15,14,13,917.46
2021,04,15,14,14,917.78
2021,04,15,14,15,917.78
2021,04,15,14,16,917.82
2021,04,15,14,17,918.56
2021,04,15,14,18,918.56
2021,04,15,14,19,919.38
2021,04,15,14,20,919.54
2021,04,15,14,21,920.05
2021,04,15,14,22,920.03
2021,04,15,14,23,920.33
2021,04,15,14,24,920.00
2021,04,15,14,25,919.71
2021,04,15,14,26,919.71
2021,04,15,14,27,919.58
2021,04,15,14,28,917.20
2021,04,15,14,29,917.30
2021,04,15,14,30,918.39
2021,04,15,14,31,918.36
2021,04,15,14,32,918.42
2021,04,15,14,33,918.48
2021,04,15,14,34,919.03
2021,04,15,14,35,919.00
2021,04,15,14,36,918.72
2021,04,15,14,37,918.67
2021,04,15,14,38,919.07
2021,04,15,14,39,919.02
2021,04,15,14,40,918.56
2021,04,15,14,41,918.93
2021,04,15,14,42,918.93
2021,04,15,14,43,918.90
2021,04,15,14,44,918.65
2021,04,15,14,45,919.26
2021,04,15,14,46,919.16
2021,04,15,14,47,919.49
2021,04,15,14,48,919.65
2021,04,15,14,49,919.78
2021,04,15,14,50,919.78
2021,04,15,14,51,919.90
2021,04,15,14,52,920.59
2021,04,15,14,53,920.36
2021,04,15,14,54,918.13
2021,04,15,14,55,917.58
2021,04,15,14,56,917.74
2021,04,15,14,57,918.72
2021,04,15,14,58,918.47
2021,04,15,14,59,918.59
2021,04,15,15,00,918.97
2021,04,15,15,01,918.76
2021,04,15,15,02,918.42
2021,04,15,15,03,918.32
2021,04,15,15,04,918.04
2021,04,15,15,05,918.04
2021,04,15,15,06,917.58
2021,04,15,15,07,917.31
2021,04,15,15,08,915.70
2021,04,15,15,09,915.20
2021,04,15,15,10,915.04
2021,04,15,15,11,915.04
2021,04,15,15,12,914.80
2021,04,15,15,13,913.88
2021,04,15,15,14,914.26
2021,04,15,15,15,914.26
2021,04,15,15,16,914.26
2021,04,15,15,17,914.26
2021,04,15,15,18,914.26
2021,04,15,15,19,913.71
2021,04,15,15,20,911.33
2021,04,15,15,21,911.24
2021,04,15,15,22,911.24
2021,04,15,15,23,910.91
2021,04,15,15,24,909.48
2021,04,15,15,25,909.48
2021,04,15,15,26,909.48
2021,04,15,15,27,909.48
2021,04,15,15,28,909.48
2021,04,15,15,29,909.48
2021,04,15,15,30,909.48
2021,04,15,15,31,909.48
2021,04,15,15,32,909.48
2021,04,15,15,33,909.48
2021,04,15,15,34,909.48
2021,04,15,23,29,923.74
2021,04,15,23,30,923.90
2021,04,15,23,31,924.21
2021,04,15,23,32,923.68
2021,04,15,23,33,922.69
2021,04,15,23,34,922.33
2021,04,15,23,35,922.35
2021,04,15,23,36,921.78
2021,04,15,23,37,921.17
2021,04,15,23,38,921.59
2021,04,15,23,39,921.52
2021,04,15,23,40,921.34
2021,04,15,23,41,921.13
2021,04,15,23,42,920.55
2021,04,15,23,43,919.96
2021,04,15,23,44,919.67
2021,04,15,23,45,919.64
2021,04,15,23,46,919.64
2021,04,15,23,47,918.38
2021,04,15,23,48,916.83
2021,04,15,23,49,916.83
2021,04,15,23,50,916.83
2021,04,15,23,51,913.72
2021,04,15,23,52,909.92
2021,04,15,23,53,909.92
2021,04,15,23,54,909.92
2021,04,15,23,55,909.92
2021,04,15,23,56,909.92
2021,04,15,23,57,909.92
2021,04,15,23,58,909.92
2021,04,15,23,59,909.92
